User: anonymous   Login
Location: Unspecified
(0.0000°N, 0.0000°E)
Time: 07:42:11
(UTC+00:00)
Language:

CUBEBUG 1 - Orbit

View from above orbital plane
View from above orbital plane
View from above satellite
View from above satellite

Ground track
Ground track

The orbit data is extracted from the following two-line orbital elements,

1 39153U 13018D   17289.90548765 +.00000341 +00000-0 +51719-4 0  9990
2 39153 097.9851 021.5537 0017344 018.9759 341.2096 14.80259096241515
Epoch (UTC): 16 October 2017 21:43:54
Eccentricity: 0.0017344
inclination: 97.9851°
perigee height: 616 km
apogee height: 640 km
right ascension of ascending node: 21.5537°
argument of perigee: 18.9759°
revolutions per day: 14.80259096
mean anomaly at epoch: 341.2096°
orbit number at epoch: 24151

The dashed part of the orbit path shows where the satellite is in the earth's shadow,  

DLR